Location: Étouvelles
(49.5207°N, 3.5808°E)
Time: 23:04:41
(UTC+00:00)

Cosmos 1892 Rocket - Pass Details

Date: 03 February 2023
Orbit: 605 x 631 km, 82.5° (Epoch: 01 April)

Event Time Altitude Azimuth Distance (km) Brightness Sun altitude
Rises 18:41:58 0° 193° (SSW) 2,897 7.2 -19.3°
Reaches altitude 10° 18:44:12 10° 195° (SSW) 1,991 6.4 -19.6°
Maximum altitude 18:48:36 75° 281° (W) 649 3.7 -20.3°
Drops below altitude 10° 18:53:01 10° 7° (N) 1,991 6.1 -21.1°
Sets 18:55:15 0° 9° (N) 2,897 6.9 -21.4°
